Simultaneous Nadir Overpasses (SNOs) Predictions

Prediction of SNOs between GOES-16 and NOAA-19 Satellite Orbit:

Table of predicted SNOs for the next 14.0 days since TLE Epoch: 9/28/2024
Index Date Time (GOES-16) GOES-16 Lat,Lon NOAA-19 Lat,Lon Distance(km) Time Diff (sec)
1 09/28/2024 02:42:26 0.06, -75.19 0.00, -79.03 427.23 0
2 09/29/2024 02:28:30 0.06, -75.20 -0.06, -75.85 73.50 80
3 09/30/2024 02:18:45 0.06, -75.21 0.59, -72.83 271.32 80
4 10/02/2024 14:37:54 -0.06, -75.25 0.42, -77.39 244.17 80
5 10/03/2024 14:24:28 -0.06, -75.26 -0.28, -74.38 101.03 18
6 10/04/2024 14:13:07 -0.06, -75.28 -0.98, -71.37 446.32 80
7 10/06/2024 02:42:04 0.06, -75.28 -0.80, -78.96 420.21 80
8 10/07/2024 02:29:41 0.06, -75.30 -0.07, -75.95 74.61 80
9 10/08/2024 02:19:56 0.06, -75.31 0.61, -72.94 271.14 80
10 10/10/2024 14:39:05 -0.05, -75.37 0.46, -77.50 243.26 80
11 10/11/2024 14:24:02 -0.05, -75.38 -0.28, -74.49 102.66 80
